sat.trackr.live / text

‹ back to catalog

STARLINK-30382

NORAD 57786 · 2023-134R

PAYLOAD ACTIVE UNKNOWN

§ Identity

Operator
Country
US
Launch date
2023-09-04
Launch site
AFETR
Launch vehicle
Mass (kg)
RCS (m²)

Purposes: comms

External: N2YO · Heavens-Above · Gunter

§ Orbital elements

Epoch: 2026-09-20T00:56:51.491040Z

Period
94.27 min
Inclination
43.0011°
Eccentricity
0.0001240
Mean motion
15.27581096 rev/d
Perigee alt
482.2 km
Apogee alt
483.9 km
Semi-major
6,861.2 km
B*
3.4071e-5
RAAN
176.5976°
Arg perigee
264.6232°
Mean anomaly
95.4478°
Rev number
16,923

§ Raw data

STARLINK-303821 57786U 23134R   26263.03948485  .00000676  00000+0  34071-4 0  99932 57786  43.0011 176.5976 0001240 264.6232  95.4478 15.27581096169239

JSON: /api/v1/satellites/57786 · /tle

For live sub-satellite position, see the globe view (requires WebGL).

§ Visibility from observer

Set your observer location to see the next 7 days of passes ≥ 10°. The values pass through the URL so the page stays shareable.

No JS? Fill the form by hand. The geolocation button needs JavaScript.